EW5042 Weather Reports


time (UTC)temp
C
wind
direction
speed
KPH
gust
KPH
rain 1hr
cm
rain 24hr
cm
rain mn
cm
humidity
%
barometer
mb
20260504044541 13 301 0.0 6.4 0.00 0.00 0.00 86 1018.6
20260504043033 13 14 0.0 0.0 0.00 0.00 0.00 86 1018.5
20260504041529 12 14 0.0 0.0 0.00 0.00 0.00 86 1018.4
20260504040027 12 15 0.0 0.0 0.00 0.00 0.00 86 1018.4
20260504034537 12 15 0.0 0.0 0.00 0.00 0.00 86 1018.4
20260504033025 13 15 0.0 0.0 0.00 0.00 0.00 86 1018.4
20260504031526 12 20 0.0 1.6 0.00 0.00 0.00 86 1018.4
20260504030039 12 22 0.0 0.0 0.00 0.00 0.00 86 1018.4
20260504024524 11 23 0.0 0.0 0.00 0.00 0.00 85 1018.3
20260504023025 11 24 0.0 0.0 0.00 0.00 0.00 85 1018.4
20260504021522 11 24 0.0 0.0 0.00 0.00 0.00 85 1018.6
20260504020019 12 24 0.0 0.0 0.00 0.00 0.00 85 1018.5
20260504014532 12 24 0.0 0.0 0.00 0.00 0.00 86 1018.6
20260504013015 12 24 0.0 3.2 0.00 0.00 0.00 86 1018.6
20260504011514 12 23 0.0 0.0 0.00 0.00 0.00 87 1018.6
20260504010015 12 23 0.0 0.0 0.00 0.00 0.00 87 1018.6
20260504004512 12 30 0.0 4.8 0.00 0.00 0.00 87 1018.8
20260504003024 12 54 0.0 1.6 0.00 0.00 0.00 87 1018.8
20260504001511 12 57 0.0 0.0 0.00 0.00 0.00 87 1018.7
20260504000010 12 57 0.0 0.0 0.00 0.00 0.00 87 1018.8
20260503234525 12 59 0.0 0.0 0.00 0.00 0.00 86 1018.9
20260503233007 12 59 0.0 0.0 0.00 0.00 0.00 87 1019.1
20260503231505 12 59 0.0 1.6 0.00 0.00 0.00 86 1019.2
20260503230005 12 59 0.0 0.0 0.00 0.00 0.00 86 1019.3
20260503224503 12 59 0.0 3.2 0.00 0.00 0.00 86 1019.4
20260503223002 12 59 0.0 0.0 0.00 0.00 0.00 85 1019.5
20260503221503 13 59 0.0 0.0 0.00 0.00 0.00 85 1019.4
20260503220100 13 59 0.0 0.0 0.00 0.00 0.00 85 1019.3
20260503214600 13 59 0.0 1.6 0.00 0.00 0.00 85 1019.4
20260503213107 13 59 0.0 0.0 0.00 0.00 0.00 85 1019.5
20260503211556 13 59 0.0 0.0 0.00 0.00 0.00 84 1019.4
20260503210104 13 59 0.0 0.0 0.00 0.00 0.00 84 1019.6
20260503204605 13 59 0.0 0.0 0.00 0.00 0.00 84 1019.5
20260503203103 13 59 0.0 0.0 0.00 0.00 0.00 83 1019.3
20260503201554 13 59 0.0 0.0 0.00 0.00 0.00 83 1019.3
20260503200059 13 59 0.0 0.0 0.00 0.00 0.00 82 1019.4
20260503194553 13 59 0.0 0.0 0.00 0.00 0.00 82 1019.5
20260503193056 13 59 0.0 0.0 0.00 0.00 0.00 81 1019.6
20260503191603 14 59 0.0 0.0 0.00 0.00 0.00 80 1019.4
20260503190051 14 59 0.0 0.0 0.00 0.00 0.00 79 1019.2
20260503184557 14 59 0.0 0.0 0.00 0.00 0.00 79 1019.2
20260503183109 15 59 0.0 0.0 0.00 0.00 0.00 77 1019.0
20260503181549 15 59 0.0 0.0 0.00 0.00 0.00 75 1018.9
20260503180049 15 59 0.0 1.6 0.00 0.00 0.00 74 1018.8
20260503174547 16 62 0.0 0.0 0.00 0.00 0.00 73 1018.7
20260503173111 16 73 0.0 0.0 0.00 0.00 0.00 72 1018.7
20260503171549 16 74 0.0 4.8 0.00 0.00 0.00 72 1018.5
20260503100117 19 89 6.4 19.3 0.00 0.00 0.00 63 1019.8
20260503081507 18 59 4.8 12.9 0.00 0.00 0.00 59 1019.7
20260503071600 17 159 3.2 9.7 0.00 0.00 0.00 59 1019.8
20260503070104 17 98 0.0 11.3 0.00 0.00 0.00 59 1019.9
20260503054538 15 80 0.0 4.8 0.00 0.00 0.00 69 1019.7
20260503053036 13 39 0.0 3.2 0.00 0.00 0.00 70 1019.7